When you browse on this site, cookies collect data to enhance your experience and personalize the content and advertising you see.
Visit our Privacy Policy to learn more. By continuing to use the site, you agree to this use of cookies and data.

Hourly Weather Zaranj

Today, 9 August, Sunday

Time Temperature Precipitation Wind Pressure Humidity
00:00 +33°C° 0 mm 9 mps 709 mmHg 25%
01:00 +32°C° 0 mm 8 mps 709 mmHg 27%
02:00 +31°C° 0 mm 9 mps 709 mmHg 28%
03:00 +31°C° 0 mm 10 mps 709 mmHg 29%
04:00 +29°C° 0 mm 9 mps 708 mmHg 29%
05:00 +31°C° 0 mm 10 mps 709 mmHg 28%
06:00 +31°C° 0 mm 10 mps 709 mmHg 27%
07:00 +31°C° 0 mm 11 mps 710 mmHg 27%
08:00 +33°C° 0 mm 11 mps 710 mmHg 24%
09:00 +37°C° 0 mm 11 mps 710 mmHg 21%
10:00 +39°C° 0 mm 12 mps 710 mmHg 18%
11:00 +42°C° 0 mm 11 mps 710 mmHg 17%
12:00 +44°C° 0 mm 10 mps 710 mmHg 15%
13:00 +47°C° 0 mm 10 mps 709 mmHg 13%
14:00 +47°C° 0 mm 10 mps 709 mmHg 12%
15:00 +48°C° 0 mm 10 mps 708 mmHg 11%
16:00 +48°C° 0 mm 10 mps 708 mmHg 10%
17:00 +45°C° 0 mm 9 mps 708 mmHg 12%
18:00 +43°C° 0 mm 8 mps 708 mmHg 14%
19:00 +40°C° 0 mm 7 mps 708 mmHg 16%
20:00 +39°C° 0 mm 8 mps 708 mmHg 17%
21:00 +38°C° 0 mm 9 mps 708 mmHg 18%
22:00 +37°C° 0 mm 10 mps 708 mmHg 19%
23:00 +37°C° 0 mm 11 mps 708 mmHg 19%

Tomorrow, 10 August, Monday

Time Temperature Precipitation Wind Pressure Humidity
00:00 +36°C° 0 mm 11 mps 709 mmHg 20%
01:00 +34°C° 0 mm 11 mps 709 mmHg 20%
02:00 +33°C° 0 mm 11 mps 709 mmHg 21%
03:00 +32°C° 0 mm 10 mps 709 mmHg 21%
04:00 +32°C° 0 mm 10 mps 708 mmHg 21%
05:00 +32°C° 0 mm 10 mps 709 mmHg 20%
06:00 +33°C° 0 mm 11 mps 709 mmHg 19%
07:00 +34°C° 0 mm 11 mps 710 mmHg 18%
08:00 +37°C° 0 mm 12 mps 710 mmHg 15%
09:00 +41°C° 0 mm 13 mps 710 mmHg 11%
10:00 +45°C° 0 mm 13 mps 710 mmHg 8%
11:00 +46°C° 0 mm 13 mps 710 mmHg 8%
12:00 +47°C° 0 mm 13 mps 710 mmHg 7%
13:00 +50°C° 0 mm 13 mps 709 mmHg 7%
14:00 +50°C° 0 mm 13 mps 709 mmHg 7%
15:00 +50°C° 0 mm 13 mps 708 mmHg 7%
16:00 +50°C° 0 mm 13 mps 708 mmHg 7%
17:00 +47°C° 0 mm 12 mps 708 mmHg 8%
18:00 +44°C° 0 mm 11 mps 708 mmHg 9%
19:00 +43°C° 0 mm 10 mps 708 mmHg 10%
20:00 +41°C° 0 mm 11 mps 708 mmHg 11%
21:00 +39°C° 0 mm 12 mps 708 mmHg 12%
22:00 +38°C° 0 mm 13 mps 708 mmHg 13%
23:00 +38°C° 0 mm 14 mps 708 mmHg 13%

Day after tomorrow, 11 August, Tuesday

Time Temperature Precipitation Wind Pressure Humidity
00:00 +37°C° 0 mm 14 mps 708 mmHg 14%
01:00 +36°C° 0 mm 15 mps 708 mmHg 14%
02:00 +36°C° 0 mm 15 mps 708 mmHg 14%
03:00 +36°C° 0 mm 15 mps 708 mmHg 15%
04:00 +34°C° 0 mm 15 mps 708 mmHg 15%
05:00 +36°C° 0 mm 16 mps 708 mmHg 15%
06:00 +36°C° 0 mm 16 mps 708 mmHg 15%
07:00 +36°C° 0 mm 17 mps 709 mmHg 14%
08:00 +38°C° 0 mm 17 mps 709 mmHg 12%
09:00 +41°C° 0 mm 17 mps 709 mmHg 10%
10:00 +45°C° 0 mm 17 mps 709 mmHg 8%
11:00 +46°C° 0 mm 16 mps 709 mmHg 7%
12:00 +49°C° 0 mm 15 mps 708 mmHg 6%
13:00 +51°C° 0 mm 15 mps 708 mmHg 5%
14:00 +50°C° 0 mm 14 mps 708 mmHg 5%
15:00 +50°C° 0 mm 14 mps 707 mmHg 5%
16:00 +50°C° 0 mm 14 mps 707 mmHg 5%
17:00 +47°C° 0 mm 13 mps 707 mmHg 7%
18:00 +45°C° 0 mm 13 mps 707 mmHg 8%
19:00 +42°C° 0 mm 12 mps 707 mmHg 10%
20:00 +41°C° 0 mm 13 mps 707 mmHg 11%
21:00 +39°C° 0 mm 13 mps 707 mmHg 12%
22:00 +38°C° 0 mm 14 mps 707 mmHg 13%
23:00 +37°C° 0 mm 14 mps 707 mmHg 15%

12 August, Wednesday

Time Temperature Precipitation Wind Pressure Humidity
00:00 +36°C° 0 mm 14 mps 707 mmHg 16%
01:00 +34°C° 0 mm 14 mps 707 mmHg 18%
02:00 +33°C° 0 mm 13 mps 707 mmHg 18%
03:00 +33°C° 0 mm 13 mps 707 mmHg 19%
04:00 +32°C° 0 mm 13 mps 707 mmHg 20%
05:00 +32°C° 0 mm 13 mps 707 mmHg 20%
06:00 +32°C° 0 mm 13 mps 708 mmHg 19%
07:00 +33°C° 0 mm 13 mps 708 mmHg 18%
08:00 +36°C° 0 mm 12 mps 709 mmHg 15%
09:00 +38°C° 0 mm 12 mps 709 mmHg 13%
10:00 +42°C° 0 mm 12 mps 709 mmHg 10%
11:00 +44°C° 0 mm 11 mps 709 mmHg 9%
12:00 +47°C° 0 mm 11 mps 709 mmHg 7%
13:00 +49°C° 0 mm 10 mps 708 mmHg 6%
14:00 +49°C° 0 mm 10 mps 708 mmHg 5%
15:00 +50°C° 0 mm 10 mps 707 mmHg 5%
16:00 +50°C° 0 mm 10 mps 707 mmHg 4%
17:00 +48°C° 0 mm 10 mps 707 mmHg 5%
18:00 +44°C° 0 mm 9 mps 707 mmHg 7%
19:00 +42°C° 0 mm 9 mps 707 mmHg 8%
20:00 +40°C° 0 mm 10 mps 707 mmHg 8%
21:00 +39°C° 0 mm 10 mps 708 mmHg 9%
22:00 +37°C° 0 mm 11 mps 708 mmHg 9%
23:00 +36°C° 0 mm 10 mps 708 mmHg 11%

13 August, Thursday

Time Temperature Precipitation Wind Pressure Humidity
00:00 +34°C° 0 mm 9 mps 707 mmHg 12%
01:00 +32°C° 0 mm 8 mps 707 mmHg 14%
02:00 +32°C° 0 mm 8 mps 707 mmHg 14%
03:00 +30°C° 0 mm 7 mps 707 mmHg 15%
04:00 +29°C° 0 mm 7 mps 707 mmHg 16%
05:00 +31°C° 0 mm 8 mps 707 mmHg 15%
06:00 +31°C° 0 mm 8 mps 708 mmHg 15%
07:00 +32°C° 0 mm 9 mps 708 mmHg 14%
08:00 +35°C° 0 mm 9 mps 708 mmHg 12%
09:00 +38°C° 0 mm 9 mps 709 mmHg 10%
10:00 +42°C° 0 mm 9 mps 709 mmHg 7%
11:00 +44°C° 0 mm 7 mps 709 mmHg 6%
12:00 +46°C° 0 mm 6 mps 708 mmHg 5%
13:00 +48°C° 0 mm 5 mps 708 mmHg 4%
14:00 +49°C° 0 mm 4 mps 707 mmHg 4%
15:00 +50°C° 0 mm 4 mps 707 mmHg 3%
16:00 +51°C° 0 mm 3 mps 706 mmHg 3%
17:00 +48°C° 0 mm 4 mps 706 mmHg 5%
18:00 +45°C° 0 mm 5 mps 706 mmHg 8%
19:00 +41°C° 0 mm 6 mps 706 mmHg 10%
20:00 +40°C° 0 mm 8 mps 706 mmHg 11%
21:00 +40°C° 0 mm 10 mps 706 mmHg 13%
22:00 +39°C° 0 mm 12 mps 707 mmHg 15%
23:00 +38°C° 0 mm 12 mps 707 mmHg 16%

14 August, Friday

Time Temperature Precipitation Wind Pressure Humidity
00:00 +37°C° 0 mm 12 mps 707 mmHg 16%
01:00 +36°C° 0 mm 11 mps 706 mmHg 17%
02:00 +34°C° 0 mm 11 mps 706 mmHg 18%
03:00 +34°C° 0 mm 11 mps 706 mmHg 19%
04:00 +33°C° 0 mm 10 mps 706 mmHg 20%
05:00 +34°C° 0 mm 10 mps 706 mmHg 19%
06:00 +34°C° 0 mm 11 mps 707 mmHg 18%
07:00 +36°C° 0 mm 11 mps 707 mmHg 17%
08:00 +38°C° 0 mm 10 mps 708 mmHg 15%
09:00 +42°C° 0 mm 10 mps 708 mmHg 12%
10:00 +45°C° 0 mm 9 mps 708 mmHg 10%
11:00 +48°C° 0 mm 9 mps 708 mmHg 8%
12:00 +50°C° 0 mm 8 mps 707 mmHg 7%
13:00 +51°C° 0 mm 7 mps 707 mmHg 5%
14:00 +52°C° 0 mm 7 mps 707 mmHg 5%
15:00 +53°C° 0 mm 6 mps 706 mmHg 5%
16:00 +53°C° 0 mm 5 mps 705 mmHg 5%
17:00 +51°C° 0 mm 6 mps 705 mmHg 7%
18:00 +47°C° 0 mm 7 mps 705 mmHg 9%
19:00 +45°C° 0 mm 8 mps 705 mmHg 11%
20:00 +44°C° 0 mm 9 mps 705 mmHg 12%
21:00 +43°C° 0 mm 9 mps 706 mmHg 13%
22:00 +42°C° 0 mm 10 mps 706 mmHg 14%
23:00 +40°C° 0 mm 10 mps 706 mmHg 15%
Show more